| time (UTC) | temp C | wind direction | speed KPH | gust KPH | rain 1hr cm | rain 24hr cm | rain mn cm | humidity % | barometer mb |
| 20260504042904 | 25 | 210 | 8.0 | 19.3 | 0.00 | 0.00 | 0.00 | 26 | 1012.2 |
| 20260504042405 | 25 | 216 | 4.8 | 14.5 | 0.00 | 0.00 | 0.00 | 25 | 1012.1 |
| 20260504041904 | 25 | 202 | 6.4 | 25.7 | 0.00 | 0.00 | 0.00 | 24 | 1012.0 |
| 20260504041403 | 25 | 211 | 8.0 | 25.7 | 0.00 | 0.00 | 0.00 | 24 | 1012.2 |
| 20260504040903 | 25 | 218 | 8.0 | 25.7 | 0.00 | 0.00 | 0.00 | 24 | 1012.1 |
| 20260504035904 | 25 | 216 | 9.7 | 20.9 | 0.00 | 0.00 | 0.00 | 23 | 1011.7 |
| 20260504035403 | 26 | 219 | 9.7 | 22.5 | 0.00 | 0.00 | 0.00 | 22 | 1011.6 |
| 20260504034904 | 26 | 219 | 8.0 | 22.5 | 0.00 | 0.00 | 0.00 | 22 | 1011.3 |
| 20260504034403 | 26 | 216 | 9.7 | 27.4 | 0.00 | 0.00 | 0.00 | 21 | 1011.4 |
| 20260504033904 | 26 | 201 | 8.0 | 27.4 | 0.00 | 0.00 | 0.00 | 20 | 1011.1 |
| 20260504033404 | 26 | 221 | 9.7 | 25.7 | 0.00 | 0.00 | 0.00 | 19 | 1010.9 |
| 20260504032904 | 26 | 216 | 9.7 | 19.3 | 0.00 | 0.00 | 0.00 | 19 | 1010.9 |
| 20260504031404 | 26 | 172 | 6.4 | 16.1 | 0.00 | 0.00 | 0.00 | 18 | 1010.8 |
| 20260504030404 | 27 | 198 | 4.8 | 19.3 | 0.00 | 0.00 | 0.00 | 17 | 1010.5 |
| 20260504025904 | 27 | 206 | 8.0 | 19.3 | 0.00 | 0.00 | 0.00 | 17 | 1010.4 |
| 20260504025404 | 27 | 196 | 8.0 | 16.1 | 0.00 | 0.00 | 0.00 | 16 | 1010.2 |
| 20260504024904 | 27 | 214 | 4.8 | 14.5 | 0.00 | 0.00 | 0.00 | 16 | 1010.1 |
| 20260504024405 | 27 | 227 | 4.8 | 20.9 | 0.00 | 0.00 | 0.00 | 15 | 1010.0 |
| 20260504023904 | 27 | 225 | 3.2 | 20.9 | 0.00 | 0.00 | 0.00 | 15 | 1009.9 |
| 20260504023404 | 27 | 235 | 6.4 | 20.9 | 0.00 | 0.00 | 0.00 | 15 | 1009.7 |
| 20260504022904 | 27 | 216 | 9.7 | 19.3 | 0.00 | 0.00 | 0.00 | 14 | 1009.7 |
| 20260504022404 | 28 | 236 | 4.8 | 16.1 | 0.00 | 0.00 | 0.00 | 14 | 1009.6 |
| 20260504021904 | 28 | 214 | 3.2 | 12.9 | 0.00 | 0.00 | 0.00 | 14 | 1009.5 |
| 20260504021403 | 28 | 227 | 4.8 | 12.9 | 0.00 | 0.00 | 0.00 | 14 | 1009.5 |
| 20260504020904 | 28 | 215 | 6.4 | 14.5 | 0.00 | 0.00 | 0.00 | 13 | 1009.5 |
| 20260504015904 | 28 | 241 | 8.0 | 19.3 | 0.00 | 0.00 | 0.00 | 13 | 1009.3 |
| 20260504015404 | 28 | 231 | 3.2 | 19.3 | 0.00 | 0.00 | 0.00 | 13 | 1009.2 |
| 20260504014903 | 28 | 224 | 6.4 | 22.5 | 0.00 | 0.00 | 0.00 | 12 | 1009.1 |
| 20260504014403 | 29 | 238 | 9.7 | 22.5 | 0.00 | 0.00 | 0.00 | 12 | 1009.0 |
| 20260504013904 | 29 | 222 | 8.0 | 19.3 | 0.00 | 0.00 | 0.00 | 12 | 1009.1 |
| 20260504013405 | 29 | 223 | 3.2 | 14.5 | 0.00 | 0.00 | 0.00 | 12 | 1009.1 |
| 20260504012904 | 30 | 231 | 4.8 | 22.5 | 0.00 | 0.00 | 0.00 | 12 | 1008.9 |
| 20260504012404 | 30 | 226 | 9.7 | 22.5 | 0.00 | 0.00 | 0.00 | 12 | 1008.8 |
| 20260504011904 | 30 | 230 | 9.7 | 20.9 | 0.00 | 0.00 | 0.00 | 11 | 1008.6 |
| 20260504011403 | 30 | 238 | 9.7 | 24.1 | 0.00 | 0.00 | 0.00 | 11 | 1008.8 |
| 20260504010404 | 30 | 222 | 9.7 | 24.1 | 0.00 | 0.00 | 0.00 | 11 | 1009.2 |
| 20260504005904 | 30 | 222 | 9.7 | 25.7 | 0.00 | 0.00 | 0.00 | 11 | 1009.1 |
| 20260504004403 | 31 | 233 | 8.0 | 24.1 | 0.00 | 0.00 | 0.00 | 11 | 1009.1 |
| 20260504003404 | 31 | 220 | 8.0 | 19.3 | 0.00 | 0.00 | 0.00 | 11 | 1009.1 |
| 20260504002404 | 31 | 235 | 11.3 | 22.5 | 0.00 | 0.00 | 0.00 | 11 | 1009.1 |
| 20260504001905 | 31 | 225 | 11.3 | 22.5 | 0.00 | 0.00 | 0.00 | 10 | 1009.0 |
| 20260504001404 | 31 | 226 | 12.9 | 29.0 | 0.00 | 0.00 | 0.00 | 10 | 1009.0 |
| 20260504000904 | 31 | 230 | 14.5 | 29.0 | 0.00 | 0.00 | 0.00 | 10 | 1009.0 |
| 20260504000404 | 31 | 229 | 11.3 | 27.4 | 0.00 | 0.00 | 0.00 | 9 | 1008.9 |
| 20260503235904 | 32 | 228 | 12.9 | 27.4 | 0.00 | 0.00 | 0.00 | 9 | 1009.0 |
| 20260503235404 | 32 | 210 | 8.0 | 29.0 | 0.00 | 0.00 | 0.00 | 9 | 1009.0 |
| 20260503234904 | 32 | 238 | 14.5 | 29.0 | 0.00 | 0.00 | 0.00 | 10 | 1009.0 |
| 20260503234404 | 32 | 240 | 14.5 | 29.0 | 0.00 | 0.00 | 0.00 | 10 | 1009.0 |
| 20260503233904 | 32 | 234 | 11.3 | 22.5 | 0.00 | 0.00 | 0.00 | 10 | 1008.9 |
| 20260503232404 | 32 | 223 | 11.3 | 32.2 | 0.00 | 0.00 | 0.00 | 10 | 1008.8 |
| 20260503231904 | 32 | 221 | 11.3 | 32.2 | 0.00 | 0.00 | 0.00 | 10 | 1008.8 |
| 20260503231403 | 33 | 225 | 14.5 | 27.4 | 0.00 | 0.00 | 0.00 | 10 | 1008.8 |
| 20260503225904 | 33 | 237 | 9.7 | 24.1 | 0.00 | 0.00 | 0.00 | 10 | 1008.8 |
| 20260503225404 | 33 | 230 | 8.0 | 22.5 | 0.00 | 0.00 | 0.00 | 10 | 1008.7 |
| 20260503224904 | 33 | 225 | 6.4 | 27.4 | 0.00 | 0.00 | 0.00 | 11 | 1008.9 |
| 20260503224403 | 33 | 248 | 9.7 | 27.4 | 0.00 | 0.00 | 0.00 | 11 | 1009.0 |
| 20260503223903 | 33 | 222 | 12.9 | 27.4 | 0.00 | 0.00 | 0.00 | 11 | 1009.0 |
| 20260503223404 | 33 | 234 | 12.9 | 27.4 | 0.00 | 0.00 | 0.00 | 11 | 1009.1 |
| 20260503222404 | 33 | 211 | 8.0 | 19.3 | 0.00 | 0.00 | 0.00 | 11 | 1009.0 |
| 20260503221403 | 33 | 199 | 3.2 | 14.5 | 0.00 | 0.00 | 0.00 | 13 | 1009.1 |
| 20260503220903 | 33 | 228 | 3.2 | 22.5 | 0.00 | 0.00 | 0.00 | 14 | 1009.2 |
| 20260503220403 | 32 | 199 | 8.0 | 22.5 | 0.00 | 0.00 | 0.00 | 13 | 1009.2 |
| 20260503215903 | 32 | 169 | 3.2 | 14.5 | 0.00 | 0.00 | 0.00 | 17 | 1009.3 |
| 20260503215404 | 32 | 43 | 3.2 | 16.1 | 0.00 | 0.00 | 0.00 | 18 | 1009.2 |
| 20260503214904 | 32 | 101 | 4.8 | 16.1 | 0.00 | 0.00 | 0.00 | 19 | 1009.3 |
| 20260503214403 | 32 | 175 | 4.8 | 14.5 | 0.00 | 0.00 | 0.00 | 19 | 1009.3 |
| 20260503213903 | 33 | 155 | 4.8 | 19.3 | 0.00 | 0.00 | 0.00 | 18 | 1009.5 |
| 20260503213404 | 32 | 113 | 4.8 | 19.3 | 0.00 | 0.00 | 0.00 | 18 | 1009.6 |
| 20260503212903 | 32 | 110 | 4.8 | 19.3 | 0.00 | 0.00 | 0.00 | 19 | 1009.8 |
| 20260503212403 | 32 | 99 | 8.0 | 19.3 | 0.00 | 0.00 | 0.00 | 19 | 1009.8 |
| 20260503211404 | 31 | 110 | 4.8 | 12.9 | 0.00 | 0.00 | 0.00 | 21 | 1010.2 |
| 20260503210904 | 31 | 127 | 3.2 | 14.5 | 0.00 | 0.00 | 0.00 | 21 | 1010.3 |
| 20260503210403 | 31 | 138 | 4.8 | 14.5 | 0.00 | 0.00 | 0.00 | 21 | 1010.3 |
| 20260503205904 | 31 | 95 | 4.8 | 12.9 | 0.00 | 0.00 | 0.00 | 22 | 1010.5 |
| 20260503204904 | 31 | 214 | 4.8 | 20.9 | 0.00 | 0.00 | 0.00 | 22 | 1010.6 |
| 20260503204404 | 30 | 157 | 3.2 | 20.9 | 0.00 | 0.00 | 0.00 | 21 | 1010.5 |
| 20260503203904 | 31 | 187 | 6.4 | 20.9 | 0.00 | 0.00 | 0.00 | 21 | 1010.6 |
| 20260503203404 | 31 | 126 | 8.0 | 16.1 | 0.00 | 0.00 | 0.00 | 21 | 1010.6 |
| 20260503201903 | 30 | 204 | 8.0 | 14.5 | 0.00 | 0.00 | 0.00 | 21 | 1010.8 |
| 20260503200904 | 30 | 169 | 4.8 | 11.3 | 0.00 | 0.00 | 0.00 | 23 | 1011.0 |
| 20260503195904 | 30 | 181 | 3.2 | 19.3 | 0.00 | 0.00 | 0.00 | 23 | 1011.3 |
| 20260503194904 | 30 | 97 | 4.8 | 14.5 | 0.00 | 0.00 | 0.00 | 24 | 1011.4 |
| 20260503194404 | 30 | 99 | 4.8 | 14.5 | 0.00 | 0.00 | 0.00 | 25 | 1011.6 |
| 20260503193904 | 29 | 147 | 3.2 | 16.1 | 0.00 | 0.00 | 0.00 | 25 | 1011.6 |
| 20260503193404 | 29 | 103 | 4.8 | 16.1 | 0.00 | 0.00 | 0.00 | 26 | 1011.7 |
| 20260503192903 | 29 | 223 | 6.4 | 14.5 | 0.00 | 0.00 | 0.00 | 25 | 1011.8 |
| 20260503192404 | 29 | 163 | 3.2 | 12.9 | 0.00 | 0.00 | 0.00 | 25 | 1011.9 |
| 20260503191903 | 29 | 184 | 4.8 | 14.5 | 0.00 | 0.00 | 0.00 | 27 | 1011.9 |
| 20260503191404 | 28 | 116 | 4.8 | 16.1 | 0.00 | 0.00 | 0.00 | 28 | 1012.0 |
| 20260503190904 | 28 | 106 | 3.2 | 16.1 | 0.00 | 0.00 | 0.00 | 28 | 1011.9 |
| 20260503190403 | 28 | 105 | 4.8 | 14.5 | 0.00 | 0.00 | 0.00 | 28 | 1012.0 |
| 20260503185904 | 28 | 127 | 3.2 | 12.9 | 0.00 | 0.00 | 0.00 | 28 | 1012.1 |
| 20260503185404 | 28 | 102 | 3.2 | 12.9 | 0.00 | 0.00 | 0.00 | 28 | 1012.1 |
| 20260503184904 | 28 | 125 | 4.8 | 12.9 | 0.00 | 0.00 | 0.00 | 28 | 1012.2 |
| 20260503184404 | 28 | 118 | 4.8 | 19.3 | 0.00 | 0.00 | 0.00 | 28 | 1012.3 |
| 20260503183904 | 28 | 134 | 4.8 | 19.3 | 0.00 | 0.00 | 0.00 | 28 | 1012.3 |
| 20260503183403 | 28 | 166 | 4.8 | 19.3 | 0.00 | 0.00 | 0.00 | 28 | 1012.4 |
| 20260503182904 | 28 | 116 | 4.8 | 14.5 | 0.00 | 0.00 | 0.00 | 28 | 1012.5 |
| 20260503182403 | 27 | 119 | 4.8 | 16.1 | 0.00 | 0.00 | 0.00 | 28 | 1012.5 |
| 20260503181903 | 28 | 94 | 4.8 | 16.1 | 0.00 | 0.00 | 0.00 | 28 | 1012.6 |
| 20260503181404 | 27 | 116 | 3.2 | 19.3 | 0.00 | 0.00 | 0.00 | 28 | 1012.7 |
| 20260503180904 | 27 | 120 | 4.8 | 19.3 | 0.00 | 0.00 | 0.00 | 28 | 1012.7 |
| 20260503180403 | 27 | 129 | 3.2 | 11.3 | 0.00 | 0.00 | 0.00 | 28 | 1012.7 |
| 20260503175903 | 27 | 190 | 3.2 | 11.3 | 0.00 | 0.00 | 0.00 | 28 | 1013.0 |
| 20260503175403 | 27 | 162 | 3.2 | 16.1 | 0.00 | 0.00 | 0.00 | 29 | 1013.1 |
| 20260503174404 | 27 | 108 | 8.0 | 16.1 | 0.00 | 0.00 | 0.00 | 28 | 1013.2 |
| 20260503173904 | 27 | 88 | 1.6 | 14.5 | 0.00 | 0.00 | 0.00 | 29 | 1013.3 |
| 20260503173404 | 27 | 153 | 4.8 | 14.5 | 0.00 | 0.00 | 0.00 | 29 | 1013.4 |
| 20260503172904 | 27 | 104 | 3.2 | 14.5 | 0.00 | 0.00 | 0.00 | 29 | 1013.4 |
| 20260503172404 | 27 | 175 | 6.4 | 14.5 | 0.00 | 0.00 | 0.00 | 29 | 1013.3 |
| 20260503171403 | 27 | 165 | 6.4 | 14.5 | 0.00 | 0.00 | 0.00 | 29 | 1013.4 |
| 20260503170903 | 27 | 71 | 4.8 | 14.5 | 0.00 | 0.00 | 0.00 | 29 | 1013.7 |
| 20260503170403 | 27 | 141 | 4.8 | 14.5 | 0.00 | 0.00 | 0.00 | 29 | 1013.6 |
| 20260503150904 | 25 | 111 | 1.6 | 11.3 | 0.00 | 0.00 | 0.00 | 34 | 1013.4 |
| 20260503150403 | 24 | 189 | 3.2 | 11.3 | 0.00 | 0.00 | 0.00 | 34 | 1013.6 |
| 20260503131403 | 22 | 150 | 1.6 | 4.8 | 0.00 | 0.00 | 0.00 | 36 | 1012.8 |
| 20260503130904 | 22 | 107 | 0.0 | 4.8 | 0.00 | 0.00 | 0.00 | 36 | 1012.8 |
| 20260503130403 | 22 | 181 | 1.6 | 4.8 | 0.00 | 0.00 | 0.00 | 36 | 1012.9 |
| 20260503110404 | 23 | 136 | 3.2 | 9.7 | 0.00 | 0.00 | 0.00 | 34 | 1012.4 |
| 20260503090404 | 24 | 127 | 3.2 | 14.5 | 0.00 | 0.00 | 0.00 | 31 | 1012.2 |
| 20260503081404 | 25 | 190 | 1.6 | 11.3 | 0.00 | 0.00 | 0.00 | 30 | 1012.3 |
| 20260503080903 | 25 | 114 | 3.2 | 11.3 | 0.00 | 0.00 | 0.00 | 30 | 1012.4 |
| 20260503080403 | 25 | 152 | 1.6 | 12.9 | 0.00 | 0.00 | 0.00 | 30 | 1012.5 |
| 20260503072404 | 25 | 208 | 3.2 | 9.7 | 0.00 | 0.00 | 0.00 | 29 | 1012.4 |
| 20260503071903 | 25 | 108 | 3.2 | 12.9 | 0.00 | 0.00 | 0.00 | 29 | 1012.5 |
| 20260503071403 | 25 | 107 | 3.2 | 12.9 | 0.00 | 0.00 | 0.00 | 29 | 1012.6 |
| 20260503070904 | 25 | 158 | 3.2 | 9.7 | 0.00 | 0.00 | 0.00 | 29 | 1012.6 |
| 20260503070403 | 25 | 198 | 3.2 | 14.5 | 0.00 | 0.00 | 0.00 | 29 | 1012.6 |
| 20260503054903 | 26 | 121 | 1.6 | 9.7 | 0.00 | 0.00 | 0.00 | 26 | 1011.8 |
| 20260503054404 | 26 | 124 | 3.2 | 9.7 | 0.00 | 0.00 | 0.00 | 26 | 1011.7 |
| 20260503053404 | 26 | 111 | 3.2 | 11.3 | 0.00 | 0.00 | 0.00 | 25 | 1011.7 |
| 20260503052903 | 27 | 130 | 4.8 | 12.9 | 0.00 | 0.00 | 0.00 | 25 | 1011.7 |
| 20260503052404 | 27 | 106 | 3.2 | 12.9 | 0.00 | 0.00 | 0.00 | 25 | 1011.7 |
| 20260503051904 | 27 | 111 | 4.8 | 12.9 | 0.00 | 0.00 | 0.00 | 25 | 1011.7 |
| 20260503051403 | 27 | 95 | 4.8 | 12.9 | 0.00 | 0.00 | 0.00 | 25 | 1011.9 |
| 20260503050404 | 27 | 128 | 4.8 | 16.1 | 0.00 | 0.00 | 0.00 | 25 | 1011.6 |
| 20260503045904 | 27 | 109 | 8.0 | 14.5 | 0.00 | 0.00 | 0.00 | 25 | 1011.7 |
| 20260503045404 | 27 | 113 | 4.8 | 12.9 | 0.00 | 0.00 | 0.00 | 25 | 1011.6 |
| 20260503044905 | 27 | 130 | 3.2 | 11.3 | 0.00 | 0.00 | 0.00 | 25 | 1011.6 |
| 20260503044403 | 27 | 131 | 3.2 | 11.3 | 0.00 | 0.00 | 0.00 | 25 | 1011.5 |